Torna al catalogo

DELTA 1 DEB

AttivoSSO
NORAD 7012·DEBRIS·🇺🇸 United States

Lanciato Nov 6, 1973 da Vandenberg Space Force Base

Loading…

Prossimi Passaggi (prossime 24 ore)

TLE

AggiornatoSource: Space-Track

Epoca: Sep 14, 2026, 15:01 UTC

1 07012U 73086C   26257.62618169  .00000029  00000-0  49584-3 0  9999
2 07012 101.7753 213.6254 0059817 316.1303 219.5282 12.47743191405621

Traccia DELTA 1 DEB in tempo reale con AllMySat

Download on the App Store